Location: *
(48.4333°N, 5.0333°W)
Time: 00:53:55
(UTC+00:00)

LilacSat-2 - Pass Details

Date: 24 October 2021
Orbit: 511 x 532 km, 97.5° (Epoch: 03 December)

Event Time Altitude Azimuth Distance (km) Brightness Sun altitude
Rises 18:25:08 0° 210° (SSW) 2,641 ? -12.4°
Reaches altitude 10° 18:28:04 10° 236° (SW) 1,754 ? -12.9°
Maximum altitude 18:30:11 14° 270° (W) 1,498 ? -13.2°
Drops below altitude 10° 18:32:18 10° 304° (NW) 1,756 ? -13.6°
Sets 18:35:14 0° 330° (NNW) 2,646 ? -14.1°
